Midland Airpark, TX

8:53 AM CDT on June 29, 2017 (GMT -0500)
Midland

Weather History for KMDD - November, 2012

Change the Weather History Date:

Tuesday, November 27, 2012

  Actual Average (KMAF) Record (KMAF)
Temperature  
Mean Temperature 44 °F -  
Max Temperature 57 °F 59 °F 85 °F (1945)
Min Temperature 32 °F 35 °F 16 °F (1938)
Degree Days  
Heating Degree Days 20    
Moisture  
Dew Point 24 °F    
Average Humidity 45    
Maximum Humidity 64    
Minimum Humidity 30    
Precipitation  
Precipitation 0.00 in - - ()
Sea Level Pressure  
Sea Level Pressure 30.38 in    
Wind  
Wind Speed 6 mph (WNW)    
Max Wind Speed 12 mph    
Max Gust Speed -    
Visibility 10 miles    
Events      
Averages and records for this station are not official NWS values.
T = Trace of Precipitation, MM = Missing Value Source: NWS Daily Summary

Daily Weather History Graph

Daily Weather History Graph

Search for Another Location

Airport or City:

Trip Planner

Search our weather history database for the weather conditions in past years. The results will help you decide how hot, cold, wet, or windy it might be!

Date:

Astronomy

Nov. 27, 2012 Rise Set
Actual Time 7:28 AM CST 5:44 PM CST
Civil Twilight 7:01 AM CST 6:10 PM CST
Nautical Twilight 6:31 AM CST 6:40 PM CST
Astronomical Twilight 6:02 AM CST 7:10 PM CST
Moon 5:16 PM CST (11/27) 6:36 AM CST (11/27)
Length of Visible Light 11h 08m
Length of Day
10h 15m
Waxing Gibbous, 99% of the Moon is Illuminated
Nov 27
Waxing Gibbous
Nov 28
Full
Dec 6
Last Quarter
Dec 13
New
Dec 19
First Quarter

Hourly Weather History & Observations

Time (CST) Temp. Windchill Dew Point Humidity Pressure Visibility Wind Dir Wind Speed Gust Speed Precip Events Conditions
12:15 AM 43.7 °F 38.1 °F 27.7 °F 53% 30.38 in 10.0 mi NNE 10.4 mph - N/A   Clear
12:35 AM 43.3 °F 37.7 °F 27.9 °F 54% 30.39 in 10.0 mi NNE 10.4 mph - N/A   Clear
12:55 AM 42.6 °F 36.8 °F 27.5 °F 55% 30.39 in 10.0 mi NNE 10.4 mph - N/A   Clear
1:15 AM 42.1 °F 35.7 °F 27.1 °F 55% 30.40 in 10.0 mi NNE 11.5 mph - N/A   Clear
1:35 AM 41.5 °F 35.9 °F 26.1 °F 54% 30.39 in 10.0 mi NNE 9.2 mph - N/A   Clear
1:55 AM 40.8 °F 36.2 °F 26.1 °F 56% 30.40 in 10.0 mi North 6.9 mph - N/A   Clear
2:15 AM 39.7 °F 33.7 °F 25.7 °F 57% 30.40 in 10.0 mi North 9.2 mph - N/A   Clear
2:35 AM 39.0 °F 33.4 °F 24.4 °F 56% 30.40 in 10.0 mi North 8.1 mph - N/A   Clear
2:55 AM 38.3 °F 31.9 °F 23.7 °F 56% 30.41 in 10.0 mi North 9.2 mph - N/A   Clear
3:15 AM 37.6 °F 32.3 °F 23.0 °F 56% 30.42 in 10.0 mi North 6.9 mph - N/A   Clear
3:35 AM 37.0 °F 32.4 °F 22.5 °F 56% 30.43 in 10.0 mi North 5.8 mph - N/A   Clear
3:55 AM 36.5 °F 31.0 °F 21.7 °F 55% 30.43 in 10.0 mi North 6.9 mph - N/A   Clear
4:15 AM 36.0 °F 30.3 °F 21.2 °F 55% 30.43 in 10.0 mi North 6.9 mph - N/A   Clear
4:35 AM 35.2 °F 30.3 °F 21.2 °F 57% 30.43 in 10.0 mi North 5.8 mph - N/A   Clear
4:55 AM 34.9 °F 29.9 °F 21.0 °F 57% 30.42 in 10.0 mi North 5.8 mph - N/A   Clear
5:15 AM 34.5 °F 31.6 °F 20.8 °F 57% 30.41 in 10.0 mi NNW 3.5 mph - N/A   Clear
6:35 AM 32.2 °F 26.7 °F 20.8 °F 63% 30.43 in 10.0 mi NNW 5.8 mph - N/A   Clear
6:55 AM 32.0 °F 26.4 °F 20.8 °F 63% 30.44 in 10.0 mi NNW 5.8 mph - N/A   Clear
7:15 AM 32.0 °F 25.6 °F 20.8 °F 63% 30.44 in 10.0 mi NNW 6.9 mph - N/A   Clear
7:35 AM 32.0 °F 25.6 °F 21.0 °F 64% 30.44 in 10.0 mi NNW 6.9 mph - N/A   Clear
7:55 AM 32.0 °F 25.6 °F 21.2 °F 64% 30.44 in 10.0 mi NNW 6.9 mph - N/A   Clear
8:15 AM 32.4 °F 26.9 °F 21.4 °F 64% 30.45 in 10.0 mi NNW 5.8 mph - N/A   Clear
8:35 AM 33.8 °F 27.7 °F 21.7 °F 61% 30.46 in 10.0 mi NNW 6.9 mph - N/A   Clear
8:55 AM 35.6 °F 30.7 °F 21.9 °F 58% 30.46 in 10.0 mi NNW 5.8 mph - N/A   Clear
9:15 AM 37.2 °F 34.7 °F 21.9 °F 54% 30.46 in 10.0 mi NNW 3.5 mph - N/A   Clear
9:35 AM 38.7 °F 35.2 °F 22.3 °F 52% 30.46 in 10.0 mi North 4.6 mph - N/A   Clear
9:55 AM 39.6 °F 36.3 °F 22.3 °F 50% 30.46 in 10.0 mi NNW 4.6 mph - N/A   Clear
10:15 AM 40.6 °F 36.0 °F 22.6 °F 49% 30.46 in 10.0 mi NNW 6.9 mph - N/A   Clear
10:35 AM 41.9 °F - 22.8 °F 47% 30.46 in 10.0 mi Calm Calm - N/A   Clear
10:55 AM 43.5 °F - 22.6 °F 44% 30.46 in 10.0 mi Calm Calm - N/A   Clear
11:15 AM 44.8 °F - 22.5 °F 41% 30.46 in 10.0 mi Calm Calm - N/A   Clear
11:35 AM 45.9 °F - 22.3 °F 39% 30.45 in 10.0 mi Calm Calm - N/A   Clear
11:55 AM 47.1 °F - 22.8 °F 38% 30.44 in 10.0 mi Calm Calm - N/A   Clear
12:15 PM 48.6 °F - 22.8 °F 36% 30.43 in 10.0 mi SW 4.6 mph - N/A   Clear
12:35 PM 49.5 °F - 23.4 °F 36% 30.41 in 10.0 mi Calm Calm - N/A   Clear
12:55 PM 50.0 °F - 23.7 °F 36% 30.39 in 10.0 mi North 3.5 mph - N/A   Clear
1:15 PM 50.9 °F - 23.9 °F 35% 30.38 in 10.0 mi Calm Calm - N/A   Clear
1:35 PM 52.0 °F - 24.1 °F 34% 30.37 in 10.0 mi NNW 3.5 mph - N/A   Clear
1:55 PM 52.9 °F - 24.4 °F 33% 30.35 in 10.0 mi Calm Calm - N/A   Clear
2:15 PM 53.4 °F - 24.4 °F 33% 30.35 in 10.0 mi Calm Calm - N/A   Clear
2:35 PM 54.3 °F - 24.8 °F 32% 30.34 in 10.0 mi Calm Calm - N/A   Clear
2:55 PM 54.7 °F - 25.0 °F 32% 30.33 in 10.0 mi Calm Calm - N/A   Clear
3:15 PM 55.8 °F - 25.2 °F 31% 30.32 in 10.0 mi South 5.8 mph - N/A   Clear
3:35 PM 55.9 °F - 25.5 °F 31% 30.32 in 10.0 mi Calm Calm - N/A   Clear
3:55 PM 56.5 °F - 25.9 °F 31% 30.31 in 10.0 mi SW 3.5 mph - N/A   Clear
4:15 PM 57.0 °F - 25.7 °F 30% 30.31 in 10.0 mi SSW 4.6 mph - N/A   Clear
4:35 PM 57.0 °F - 25.9 °F 30% 30.31 in 10.0 mi SSW 3.5 mph - N/A   Clear
4:55 PM 57.0 °F - 25.9 °F 30% 30.31 in 10.0 mi SSW 5.8 mph - N/A   Clear
5:15 PM 57.0 °F - 26.1 °F 30% 30.31 in 10.0 mi SSW 5.8 mph - N/A   Clear
5:55 PM 54.7 °F - 26.1 °F 33% 30.31 in 10.0 mi South 5.8 mph - N/A   Clear
6:15 PM 53.6 °F - 26.2 °F 35% 30.30 in 10.0 mi South 4.6 mph - N/A   Clear
6:35 PM 52.9 °F - 26.1 °F 35% 30.30 in 10.0 mi SSW 3.5 mph - N/A   Clear
6:55 PM 52.3 °F - 26.4 °F 37% 30.31 in 10.0 mi South 4.6 mph - N/A   Clear
7:15 PM 51.4 °F - 26.6 °F 38% 30.31 in 10.0 mi SSW 4.6 mph - N/A   Clear
7:35 PM 50.7 °F - 26.8 °F 40% 30.32 in 10.0 mi South 3.5 mph - N/A   Clear
7:55 PM 49.3 °F - 27.1 °F 42% 30.31 in 10.0 mi Calm Calm - N/A   Clear
8:15 PM 48.7 °F - 27.1 °F 43% 30.31 in 10.0 mi South 4.6 mph - N/A   Scattered Clouds
8:35 PM 48.2 °F - 26.4 °F 43% 30.31 in 10.0 mi South 5.8 mph - N/A   Scattered Clouds
8:55 PM 48.9 °F - 25.9 °F 41% 30.31 in 10.0 mi SSW 5.8 mph - N/A   Clear
9:15 PM 48.7 °F - 25.7 °F 41% 30.31 in 10.0 mi South 4.6 mph - N/A   Clear
9:35 PM 48.0 °F - 25.9 °F 42% 30.31 in 10.0 mi South 5.8 mph - N/A   Clear
9:55 PM 48.4 °F - 25.5 °F 41% 30.30 in 10.0 mi South 8.1 mph - N/A   Clear
10:15 PM 48.7 °F - 25.3 °F 40% 30.30 in 10.0 mi South 6.9 mph - N/A   Clear
10:55 PM 48.0 °F - 25.3 °F 41% 30.30 in 10.0 mi South 8.1 mph - N/A   Clear
11:15 PM 48.2 °F - 25.3 °F 41% 30.30 in 10.0 mi South 6.9 mph - N/A   Clear
11:55 PM 48.6 °F - 25.3 °F 40% 30.30 in 10.0 mi South 6.9 mph - N/A   Clear